TimeMDT,TemperatureF,Dew PointF,Humidity,Sea Level PressureIn,VisibilityMPH,Wind Direction,Wind SpeedMPH,Gust SpeedMPH,PrecipitationIn,Events,Conditions,WindDirDegrees,DateUTC
12:00 AM,1,-3,77,30.12,,WSW,6.9,,,,,240,2012-10-31 06:00:00
12:00 AM,26.6,23.0,86,30.15,9.0,NNE,6.9,-,N/A,,Overcast,30,2012-10-31 06:00:00
12:53 AM,26.6,23.0,86,30.16,9.0,NNE,5.8,-,N/A,,Overcast,20,2012-10-31 06:53:00
1:00 AM,26.6,23.0,86,30.16,9.0,North,6.9,-,N/A,,Overcast,10,2012-10-31 07:00:00
2:00 AM,26.6,23.0,86,30.16,9.0,ENE,5.8,-,N/A,,Overcast,60,2012-10-31 08:00:00
2:38 AM,26.6,23.0,86,30.17,9.0,NE,4.6,-,N/A,Snow,Light Snow,50,2012-10-31 08:38:00
2:52 AM,26.6,23.0,86,30.17,9.0,ENE,4.6,-,N/A,,Overcast,60,2012-10-31 08:52:00
2:59 AM,26.6,23.0,86,30.18,9.0,ENE,4.6,-,N/A,Snow,Light Snow,60,2012-10-31 08:59:00
3:00 AM,26.6,23.0,86,30.17,9.0,ENE,4.6,-,N/A,Snow,Light Snow,60,2012-10-31 09:00:00
3:54 AM,26.6,23.0,86,30.17,9.0,ENE,5.8,-,N/A,,Overcast,60,2012-10-31 09:54:00
4:00 AM,26.6,23.0,86,30.20,9.0,NE,6.9,-,N/A,,Overcast,50,2012-10-31 10:00:00
4:08 AM,26.6,23.0,86,30.20,9.0,NE,6.9,-,N/A,Snow,Light Snow,50,2012-10-31 10:08:00
4:13 AM,26.6,23.0,86,30.20,9.0,NE,6.9,-,N/A,Snow,Light Snow,40,2012-10-31 10:13:00
4:31 AM,26.6,23.0,86,30.19,7.0,ENE,8.1,-,N/A,Snow,Light Snow,60,2012-10-31 10:31:00
4:39 AM,24.8,23.0,93,30.19,6.0,ENE,6.9,-,N/A,Snow,Light Snow,70,2012-10-31 10:39:00
4:48 AM,24.8,23.0,93,30.19,5.0,ENE,9.2,-,N/A,Snow,Light Snow,70,2012-10-31 10:48:00
4:51 AM,24.8,23.0,93,30.20,5.0,ENE,9.2,-,N/A,Snow,Light Snow,70,2012-10-31 10:51:00
4:52 AM,24.8,23.0,93,30.20,5.0,ENE,9.2,-,N/A,Snow,Light Snow,70,2012-10-31 10:52:00
4:53 AM,24.8,23.0,93,30.20,5.0,ENE,9.2,-,N/A,Snow,Light Snow,70,2012-10-31 10:53:00
4:54 AM,24.8,23.0,93,30.19,5.0,ENE,9.2,-,N/A,,Overcast,70,2012-10-31 10:54:00
4:56 AM,24.8,23.0,93,30.19,5.0,ENE,9.2,-,N/A,,Overcast,70,2012-10-31 10:56:00
4:59 AM,24.8,23.0,93,30.19,5.0,ENE,8.1,-,N/A,Snow,Light Snow,60,2012-10-31 10:59:00
5:00 AM,24.8,23.0,93,30.22,5.0,ENE,8.1,-,N/A,Snow,Light Snow,60,2012-10-31 11:00:00
5:04 AM,24.8,23.0,93,30.22,4.0,ENE,9.2,-,N/A,Snow,Light Snow,60,2012-10-31 11:04:00
5:25 AM,24.8,23.0,93,30.22,4.0,ENE,6.9,-,N/A,,Overcast,70,2012-10-31 11:25:00
6:00 AM,-2,-5,81,30.13,,West,3.5,,,,,280,2012-10-31 12:00:00
6:00 AM,24.8,23.0,93,30.23,3.0,ENE,9.2,-,N/A,,Light Freezing Drizzle,70,2012-10-31 12:00:00
7:00 AM,24.8,23.0,93,30.23,4.0,ENE,8.1,-,N/A,Rain,Light Freezing Rain,60,2012-10-31 13:00:00
8:00 AM,24.8,23.0,93,30.25,3.0,East,8.1,-,N/A,Rain,Light Freezing Rain,80,2012-10-31 14:00:00
9:00 AM,24.8,23.0,93,30.24,6.0,ENE,8.1,-,N/A,,Overcast,70,2012-10-31 15:00:00
9:13 AM,24.8,23.0,93,30.25,5.0,ENE,6.9,-,N/A,Rain,Light Freezing Rain,70,2012-10-31 15:13:00
10:00 AM,24.8,23.0,93,30.24,8.0,East,6.9,-,N/A,Rain,Light Freezing Rain,100,2012-10-31 16:00:00
10:15 AM,24.8,23.0,93,30.24,9.0,East,8.1,-,N/A,,Overcast,90,2012-10-31 16:15:00
11:00 AM,24.8,24.8,100,30.22,5.0,ENE,8.1,-,N/A,Rain,Light Freezing Rain,70,2012-10-31 17:00:00
11:27 AM,26.6,24.8,93,30.22,8.0,East,9.2,-,N/A,,Overcast,80,2012-10-31 17:27:00
12:00 PM,3,-4,60,30.17,,SW,3.5,,,,,230,2012-10-31 18:00:00
12:00 PM,26.6,24.8,93,30.22,9.0,East,6.9,-,N/A,,Overcast,100,2012-10-31 18:00:00
1:00 PM,26.6,24.8,93,30.18,10.0,East,11.5,-,N/A,,Overcast,90,2012-10-31 19:00:00
2:00 PM,28.4,26.6,93,30.16,10.0,East,8.1,-,N/A,,Overcast,80,2012-10-31 20:00:00
3:00 PM,28.4,26.6,93,30.13,7.0,East,11.5,-,N/A,,Overcast,90,2012-10-31 21:00:00
3:48 PM,28.4,28.4,100,30.12,5.0,East,10.4,-,N/A,,Overcast,100,2012-10-31 21:48:00
4:00 PM,28.4,28.4,100,30.12,5.0,East,11.5,-,N/A,,Overcast,100,2012-10-31 22:00:00
4:38 PM,28.4,28.4,100,30.10,2.5,East,12.7,-,N/A,,Overcast,100,2012-10-31 22:38:00
4:49 PM,28.4,28.4,100,30.10,1.8,East,11.5,-,N/A,,Overcast,100,2012-10-31 22:49:00
5:00 PM,28.4,28.4,100,30.09,1.5,East,11.5,17.3,N/A,,Overcast,90,2012-10-31 23:00:00
5:22 PM,28.4,28.4,100,30.09,1.2,East,12.7,-,N/A,,Overcast,80,2012-10-31 23:22:00
5:38 PM,30.2,28.4,93,30.08,1.5,East,11.5,-,N/A,,Overcast,80,2012-10-31 23:38:00
5:45 PM,30.2,28.4,93,30.09,2.0,East,12.7,-,N/A,,Overcast,90,2012-10-31 23:45:00
6:00 PM,12,7,71,30.22,,SW,6.9,,,,,220,2012-11-01 00:00:00
6:00 PM,30.2,30.2,100,30.08,2.5,East,10.4,-,N/A,,Overcast,80,2012-11-01 00:00:00
6:23 PM,30.2,30.2,100,30.07,1.5,East,11.5,-,N/A,,Overcast,90,2012-11-01 00:23:00
6:34 PM,30.2,30.2,100,30.06,0.8,ENE,8.1,-,N/A,,Overcast,70,2012-11-01 00:34:00
7:00 PM,30.2,30.2,100,30.05,0.8,East,11.5,-,N/A,,Overcast,80,2012-11-01 01:00:00
7:39 PM,30.2,30.2,100,30.05,1.0,ENE,5.8,-,N/A,,Overcast,70,2012-11-01 01:39:00
8:00 PM,32.0,32.0,100,30.04,3.0,East,8.1,-,N/A,,Overcast,100,2012-11-01 02:00:00
8:30 PM,32.0,32.0,100,30.02,6.0,ESE,10.4,-,N/A,,Overcast,120,2012-11-01 02:30:00
9:00 PM,33.8,32.0,93,30.01,10.0,ESE,11.5,-,N/A,,Overcast,120,2012-11-01 03:00:00
10:00 PM,33.8,32.0,93,29.99,10.0,ESE,9.2,-,N/A,,Overcast,110,2012-11-01 04:00:00
11:00 PM,33.8,32.0,93,29.97,8.0,ESE,8.1,-,N/A,,Overcast,120,2012-11-01 05:00:00